[[{"header":{"parameterUnit":"m.s-1","parameterCategory":1,"la1":30.2991,"la2":30.254,"lo1":-89.0895,"lo2":-89.0444,"dy":0.0017,"dx":0.0017,"nx":28,"ny":28,"refTime":"2023-10-01T21:00:00:Z","depth":0,"parameterNumber":2,"parameterNumberName":"U-component_of_WINDS"},"data":[0,0,0,0,0,0,0,0,0,0,0,0,0,0,0,0,0,0,0,0,0,0,0,0,0,0,0,0,0,0,0,0,0,0,0,0,0,0,0,0,0,0,0,0,0,0,0,0,0,0,0,0,0,0,0,0,0,0,-4.661,-4.661,0,-4.6636,-4.6637,-4.6637,-4.6534,-4.6531,-4.6528,-4.6525,-4.6554,-4.6557,-4.6561,0,0,0,0,0,0,0,0,0,0,0,0,0,-4.6473,-4.6476,-4.661,-4.661,-4.6611,-4.6636,-4.6637,-4.6637,-4.6535,-4.6531,-4.6527,-4.6524,-4.6552,-4.6557,-4.6561,0,0,0,0,0,0,0,0,0,0,0,0,0,-4.652,-4.6477,-4.661,-4.6563,-4.6559,-4.6636,-4.6637,-4.6637,-4.6535,-4.6531,-4.6526,-4.6522,-4.6551,-4.6556,-4.6562,-4.6687,0,0,-4.6578,-4.658,0,0,0,0,0,0,0,0,-4.6517,-4.6525,-4.6569,-4.6566,-4.6562,-4.6577,-4.6599,-4.6654,-4.6536,-4.6544,-4.6525,-4.652,-4.6565,-4.6569,-4.6584,-4.6688,-4.6689,-4.6579,-4.6582,-4.6584,-4.6586,0,0,0,0,0,0,0,-4.6514,-4.6523,-4.662,-4.657,-4.6566,-4.6541,-4.6542,-4.6609,-4.658,-4.6543,-4.6536,-4.654,-4.6562,-4.6579,-4.6584,-4.669,-4.6578,-4.6583,-4.6587,-4.6589,-4.6899,-4.6904,0,0,0,0,0,0,-4.6517,-4.6521,-4.662,-4.6621,-4.6528,-4.6547,-4.6549,-4.6577,-4.6579,-4.6575,-4.6544,-4.6535,-4.6572,-4.6578,-4.6585,-4.6733,-4.6584,-4.6589,-4.6592,-4.6894,-4.69,-4.6906,0,0,0,0,0,0,-4.6514,-4.6527,-4.6619,-4.6569,-4.6579,-4.6554,-4.6587,-4.658,-4.6597,-4.658,-4.6574,-4.6567,-4.6569,-4.6577,-4.6662,-4.6732,-4.6592,-4.6597,-4.6888,-4.6896,-4.6903,-4.7029,0,0,0,0,0,0,-4.6511,-4.6526,-4.6573,-4.6571,-4.6582,-4.6696,-4.6591,-4.6584,-4.6606,-4.6595,-4.6599,-4.6596,-4.6566,-4.6655,-4.6668,-4.6737,-4.6601,-4.6882,-4.6892,-4.6901,-4.7018,-4.704,-4.7058,0,0,0,0,0,-4.6506,-4.6607,-4.6576,-4.6588,-4.664,-4.67,-4.6706,-4.6669,-4.6612,-4.6659,-4.6649,-4.6596,-4.6722,-4.6664,-4.6678,-4.675,-4.6878,-4.6889,-4.69,-4.7009,-4.7036,-4.7058,0,0,0,0,0,0,-4.6618,-4.6606,-4.6571,-4.6674,-4.6689,-4.6682,-4.674,-4.6698,-4.6729,-4.6717,-4.667,-4.6672,-4.6766,-4.6766,-4.6702,-4.6872,-4.679,-4.6805,-4.6869,-4.6893,-4.6913,-4.6911,-4.6605,0,0,0,0,0,-4.6655,-4.6704,-4.6691,-4.6783,-4.6792,-4.6766,-4.679,-4.6761,-4.6774,-4.678,-4.6775,-4.6791,-4.6834,-4.6863,-4.6902,-4.7018,-4.7018,-4.7074,-4.7094,-4.711,-4.7124,-4.7187,-4.7212,-4.6943,-4.6943,-4.6943,0,0,-4.6731,-4.673,-4.6764,-4.6806,-4.6813,-4.6866,-4.6771,-4.6831,-4.687,-4.6789,-4.6869,-4.6867,-4.6881,-4.6983,-4.7027,-4.6986,-4.7198,-4.7125,-4.7138,-4.7142,-4.7201,-4.7226,-4.7249,-4.695,-4.6949,-4.6948,0,0,-4.6897,-4.6901,-4.6979,-4.6989,-4.7002,-4.6984,-4.7003,-4.7003,-4.6998,-4.7078,-4.7019,-4.7065,-4.714,-4.7154,-4.717,-4.7344,-4.7297,-4.7357,-4.7461,-4.7523,-4.7544,-4.7563,-4.7626,-4.7649,-4.7371,-4.7371,-4.7371,0,-4.699,-4.7067,-4.7025,-4.7089,-4.711,-4.7038,-4.7118,-4.713,-4.7155,-4.7172,-4.7125,-4.7219,-4.7223,-4.7328,-4.737,-4.7386,-4.7407,-4.7357,-4.7545,-4.7563,-4.758,-4.7639,-4.7663,-4.7378,-4.7378,-4.7377,-4.7376,0,-4.7181,-4.7236,-4.7297,-4.7324,-4.7351,-4.7423,-4.7393,-4.7426,-4.7395,-4.7382,-4.7465,-4.7468,-4.7507,-4.753,-4.7499,-4.7631,-4.7605,-4.7552,-4.7469,-4.7613,-4.7669,-4.7691,-4.7389,-4.7386,-4.7384,-4.7382,0,0,-4.7418,-4.7421,-4.7445,-4.7457,-4.7467,-4.7508,-4.7577,-4.7615,-4.7645,-4.7666,-4.7723,-4.7789,-4.7741,-4.776,-4.7731,-4.7785,-4.7924,-4.7726,-4.7725,-4.7764,-4.8071,-4.8112,-4.8139,-4.7893,-4.7897,-4.79,-4.807,0,-4.7582,-4.7699,-4.7665,-4.7783,-4.7834,-4.7768,-4.7828,-4.7842,-4.7832,-4.7874,-4.7863,-4.7912,-4.7843,-4.7855,-4.7905,-4.7897,-4.7986,-4.7884,-4.7948,-4.795,-4.7947,-4.8167,-4.821,-4.837,-4.8092,-4.8095,-4.8098,0,-4.7788,-4.7817,-4.7941,-4.7944,-4.7964,-4.8019,-4.8052,-4.8093,-4.8107,-4.8096,-4.8119,-4.8079,-4.8148,-4.8065,-4.816,-4.8092,-4.8116,-4.8116,-4.8121,-4.8126,-4.8033,-4.818,-4.842,-4.8445,-4.8131,-4.8129,-4.8126,0,-4.795,-4.802,-4.8104,-4.8116,-4.8121,-4.8161,-4.8166,-4.8175,-4.8201,-4.823,-4.8247,-4.8284,-4.8305,-4.8335,-4.8306,-4.8248,-4.8408,-4.8321,-4.8402,-4.8403,-4.8439,-4.8437,-4.8687,-4.8453,-4.8453,-4.8452,-4.8452,0,-4.8137,-4.8216,-4.8177,-4.8228,-4.8315,-4.8275,-4.8362,-4.8359,-4.8369,-4.8419,-4.8364,-4.8413,-4.8372,-4.8418,-4.8397,-4.848,-4.849,-4.8484,-4.8478,-4.849,-4.8491,-4.8505,-4.8494,-4.8459,-4.8457,-4.8456,-4.8455,0,-4.8333,-4.8309,-4.8396,-4.8395,-4.8396,-4.846,-4.8459,-4.8508,-4.8494,-4.8559,-4.8572,-4.8552,-4.8603,-4.8578,-4.8631,-4.8616,-4.8725,-4.8703,-4.872,-4.8715,-4.8797,-4.8791,-4.9067,-4.9102,-4.8844,-4.8847,-4.8849,0,-4.8454,-4.8513,-4.8518,-4.8548,-4.8556,-4.8605,-4.8631,-4.8594,-4.8624,-4.8646,-4.8692,-4.8739,-4.8774,-4.8859,-4.885,-4.8891,-4.887,-4.8964,-4.8876,-4.8887,-4.8873,-4.887,-4.8877,-4.8982,-4.8985,-4.8987,-4.8989,0,-4.8673,-4.8658,-4.8698,-4.8734,-4.8767,-4.8794,-4.8816,-4.8844,-4.8808,-4.8845,-4.8896,-4.8924,-4.8978,-4.9026,-4.9062,-4.9067,-4.9024,-4.9017,-4.9038,-4.9052,-4.906,-4.9058,-4.877,-4.9011,-4.9009,-4.9007,-4.9006,-4.9005,-4.8835,-4.8885,-4.8897,-4.8944,-4.8957,-4.8979,-4.9025,-4.9018,-4.906,-4.9102,-4.9078,-4.9139,-4.9153,-4.9197,-4.9209,-4.9257,-4.9219,-4.925,-4.9257,-4.9266,-4.9277,-4.9052,-4.9263,-4.9262,-4.9262,-4.9261,-4.9261,0,-4.9052,-4.9056,-4.9099,-4.9133,-4.917,-4.9125,-4.9148,-4.9182,-4.9236,-4.9253,-4.9289,-4.935,-4.9396,-4.9391,-4.9434,-4.9473,-4.9455,-4.9486,-4.9483,-4.9485,-4.9308,-4.9286,-4.9501,-4.9501,-4.9501,-4.95,-4.95,-4.95,-4.9169,-4.9252,-4.9239,-4.9329,-4.9333,-4.9392,-4.9409,-4.943,-4.9444,-4.9514,-4.9552,-4.9548,-4.9557,-4.96,-4.9641,-4.9639,-4.9657,-4.9697,-4.9687,-4.9521,-4.9498,-4.9475,-4.9454,-4.9701,-4.9701,-4.9861,-4.9862,-4.9863]},{"header":{"parameterUnit":"m.s-1","parameterCategory":1,"la1":30.2991,"la2":30.254,"lo1":-89.0895,"lo2":-89.0444,"dy":0.0017,"dx":0.0017,"nx":28,"ny":28,"refTime":"2023-10-01T21:00:00:Z","depth":0,"parameterNumber":3,"parameterNumberName":"V-component_of_WINDS"},"data":[0,0,0,0,0,0,0,0,0,0,0,0,0,0,0,0,0,0,0,0,0,0,0,0,0,0,0,0,0,0,0,0,0,0,0,0,0,0,0,0,0,0,0,0,0,0,0,0,0,0,0,0,0,0,0,0,0,0,-1.0041,-1.0041,0,-1.0092,-1.0093,-1.0093,-1.0098,-1.0097,-1.0097,-1.0096,-1.0148,-1.015,-1.0152,0,0,0,0,0,0,0,0,0,0,0,0,0,-0.9946,-0.9947,-1.0041,-1.0041,-1.0042,-1.0092,-1.0093,-1.0093,-1.0098,-1.0097,-1.0097,-1.0096,-1.0148,-1.015,-1.0152,0,0,0,0,0,0,0,0,0,0,0,0,0,-0.9991,-0.9948,-1.0041,-1.005,-1.0052,-1.0092,-1.0093,-1.0093,-1.0098,-1.0097,-1.0097,-1.0096,-1.0147,-1.015,-1.0152,-1.0186,0,0,-1.0161,-1.0162,0,0,0,0,0,0,0,0,-0.9988,-0.9994,-1.0048,-1.005,-1.0051,-1.0088,-1.0078,-1.0124,-1.0098,-1.0081,-1.0096,-1.0095,-1.0129,-1.0133,-1.0144,-1.0188,-1.0191,-1.0161,-1.0163,-1.0164,-1.0165,0,0,0,0,0,0,0,-0.9985,-0.9992,-1.0061,-1.0049,-1.0051,-1.0052,-1.0057,-1.0087,-1.0108,-1.0082,-1.0082,-1.0089,-1.0129,-1.0142,-1.0146,-1.0191,-1.0161,-1.0164,-1.0165,-1.0167,-1.0264,-1.0265,0,0,0,0,0,0,-0.998,-0.999,-1.0059,-1.0062,-1.0017,-1.0054,-1.006,-1.0077,-1.0108,-1.0112,-1.0089,-1.0089,-1.0137,-1.0142,-1.0147,-1.0188,-1.0164,-1.0167,-1.0168,-1.0264,-1.0265,-1.0266,0,0,0,0,0,0,-0.9978,-0.9987,-1.0057,-1.0026,-1.0035,-1.0057,-1.0075,-1.0078,-1.0091,-1.0114,-1.0117,-1.0098,-1.0137,-1.0143,-1.0176,-1.019,-1.0168,-1.0171,-1.0263,-1.0264,-1.0265,-1.027,0,0,0,0,0,0,-0.9976,-0.9986,-0.9999,-1.0026,-1.0037,-1.0085,-1.0076,-1.008,-1.0095,-1.0095,-1.0123,-1.0126,-1.0137,-1.0172,-1.0179,-1.0194,-1.0173,-1.0261,-1.0263,-1.0265,-1.0269,-1.0272,-1.0274,0,0,0,0,0,-0.9972,-0.9998,-1.0,-1.0008,-1.0054,-1.0086,-1.0092,-1.0104,-1.0097,-1.011,-1.0124,-1.0126,-1.0187,-1.0175,-1.0183,-1.0199,-1.0261,-1.0263,-1.0265,-1.0268,-1.0271,-1.0274,0,0,0,0,0,0,-0.9972,-1.0002,-1.0004,-1.004,-1.0061,-1.0087,-1.0104,-1.0107,-1.013,-1.0128,-1.0141,-1.0147,-1.018,-1.0193,-1.0178,-1.0233,-1.0223,-1.0227,-1.0223,-1.0226,-1.0229,-1.0225,-1.0175,0,0,0,0,0,-0.9976,-1.0,-1.0025,-1.0055,-1.0065,-1.0083,-1.0097,-1.0104,-1.0126,-1.0135,-1.0152,-1.0172,-1.0196,-1.0212,-1.0236,-1.0271,-1.0277,-1.0285,-1.0288,-1.029,-1.0293,-1.0312,-1.0316,-1.0272,-1.0272,-1.0272,0,0,-0.9985,-1.0005,-1.0019,-1.0055,-1.0072,-1.0096,-1.009,-1.0116,-1.0134,-1.0138,-1.017,-1.0183,-1.0207,-1.0241,-1.0257,-1.0253,-1.0306,-1.0293,-1.0294,-1.0296,-1.0314,-1.0318,-1.0322,-1.0274,-1.0274,-1.0273,0,0,-1.0014,-1.0031,-1.0057,-1.0074,-1.0099,-1.0111,-1.0117,-1.0143,-1.0152,-1.0184,-1.0188,-1.0209,-1.0251,-1.0267,-1.0281,-1.0315,-1.0317,-1.0323,-1.0336,-1.0354,-1.0357,-1.036,-1.0372,-1.0376,-1.0326,-1.0326,-1.0326,0,-1.0021,-1.0058,-1.007,-1.0096,-1.0111,-1.0117,-1.0143,-1.0158,-1.019,-1.02,-1.0195,-1.0247,-1.0264,-1.0301,-1.0309,-1.0321,-1.0328,-1.032,-1.0356,-1.0359,-1.0362,-1.0374,-1.0378,-1.0326,-1.0326,-1.0326,-1.0326,0,-1.0066,-1.0092,-1.011,-1.014,-1.0158,-1.0184,-1.0199,-1.0215,-1.022,-1.0232,-1.0264,-1.0284,-1.0312,-1.0321,-1.0327,-1.0359,-1.0356,-1.0353,-1.0344,-1.0367,-1.0377,-1.0382,-1.0327,-1.0327,-1.0327,-1.0326,0,0,-1.0097,-1.0133,-1.0139,-1.0153,-1.0181,-1.0201,-1.0226,-1.0253,-1.0267,-1.0288,-1.031,-1.0344,-1.0342,-1.0357,-1.0365,-1.0381,-1.0406,-1.0376,-1.0377,-1.0381,-1.0442,-1.0444,-1.0449,-1.0407,-1.0408,-1.0409,-1.044,0,-1.0128,-1.0174,-1.0185,-1.0225,-1.0248,-1.0253,-1.0275,-1.0295,-1.0307,-1.0328,-1.034,-1.0364,-1.036,-1.0369,-1.0385,-1.0399,-1.0418,-1.0397,-1.0427,-1.0428,-1.042,-1.0455,-1.0457,-1.0486,-1.0445,-1.0445,-1.0446,0,-1.0171,-1.0193,-1.0235,-1.026,-1.027,-1.029,-1.0315,-1.0335,-1.0357,-1.0364,-1.0381,-1.0387,-1.0413,-1.0403,-1.0439,-1.0424,-1.0437,-1.0446,-1.0447,-1.045,-1.0438,-1.0458,-1.0495,-1.0499,-1.0453,-1.0452,-1.0452,0,-1.0188,-1.0229,-1.0259,-1.027,-1.03,-1.0314,-1.0327,-1.0348,-1.0363,-1.0385,-1.0394,-1.0419,-1.0432,-1.0451,-1.0462,-1.0454,-1.0497,-1.0488,-1.0504,-1.0504,-1.0513,-1.0512,-1.0552,-1.0521,-1.0521,-1.0521,-1.0521,0,-1.0222,-1.0247,-1.0267,-1.0285,-1.0314,-1.0326,-1.0353,-1.0366,-1.0385,-1.0405,-1.0411,-1.043,-1.0445,-1.0466,-1.0475,-1.0503,-1.0509,-1.0516,-1.0518,-1.0515,-1.0514,-1.0523,-1.0521,-1.0522,-1.0522,-1.0522,-1.0522,0,-1.0246,-1.026,-1.0293,-1.0318,-1.0325,-1.0345,-1.0366,-1.0384,-1.0396,-1.0422,-1.0428,-1.0447,-1.0472,-1.0485,-1.0516,-1.0523,-1.0554,-1.0555,-1.0547,-1.0548,-1.0562,-1.0561,-1.0609,-1.0616,-1.0581,-1.0582,-1.0582,0,-1.0266,-1.0286,-1.0313,-1.0327,-1.034,-1.0364,-1.0379,-1.0392,-1.0407,-1.0433,-1.0448,-1.0473,-1.0494,-1.0534,-1.0549,-1.0573,-1.0575,-1.059,-1.0578,-1.0575,-1.0574,-1.0573,-1.0575,-1.0592,-1.0592,-1.0593,-1.0593,0,-1.0301,-1.0307,-1.0329,-1.0354,-1.0372,-1.0392,-1.0412,-1.0423,-1.0439,-1.0456,-1.0482,-1.0498,-1.053,-1.0554,-1.0579,-1.0592,-1.0595,-1.0596,-1.0601,-1.0598,-1.0592,-1.0595,-1.0552,-1.0595,-1.0595,-1.0595,-1.0595,-1.0595,-1.0323,-1.0341,-1.0362,-1.0387,-1.0403,-1.0421,-1.0439,-1.0453,-1.0475,-1.0502,-1.0507,-1.0534,-1.0555,-1.0589,-1.0602,-1.0623,-1.062,-1.0627,-1.0629,-1.063,-1.063,-1.0589,-1.0627,-1.0627,-1.0627,-1.0627,-1.0627,0,-1.0358,-1.0372,-1.0394,-1.0422,-1.0441,-1.0442,-1.0464,-1.0479,-1.0503,-1.0522,-1.0542,-1.0572,-1.0596,-1.0613,-1.0637,-1.0651,-1.0652,-1.0656,-1.0655,-1.0658,-1.0632,-1.0625,-1.0655,-1.0655,-1.0654,-1.0654,-1.0654,-1.0654,-1.0378,-1.0407,-1.0416,-1.0453,-1.0467,-1.0493,-1.0505,-1.0522,-1.0537,-1.057,-1.059,-1.0601,-1.0619,-1.0645,-1.0666,-1.0671,-1.0679,-1.0683,-1.0688,-1.0663,-1.066,-1.0657,-1.0651,-1.0685,-1.0685,-1.0712,-1.0712,-1.0712]}]]